English version Home page |
Updated on September 26, 2024 |
|
軌道要素Epoch = 2019 June 6.0 TT T = 2019 June 22.66928 TT Peri. = 332.51891 e = 0.6486817 Node = 307.60604 2000.0 q = 1.0633976 AU Incl. = 12.28094 a = 3.0268783 AU n = 0.18715939 P = 5.27 years
|
光度変化H = 18.5 G = 0.15
|
軌道要素は、CBET 5433に掲載されたものです。
|